{"data":{"norad_id":46557,"epoch":"2026-07-20T03:17:35.425248Z","epoch_age_seconds":5410068,"freshness":"OLD","line1":"1 46557U 20070AB  26201.13721557  .04611541  12167-4  75121-3 0  9990","line2":"2 46557  53.0199 181.8991 0003110 276.4363  83.6326 16.32773181321147","mean_motion":16.32773181,"eccentricity":0.000311,"inclination_deg":53.0199,"raan_deg":181.8991,"arg_perigee_deg":276.4363,"mean_anomaly_deg":83.6326,"bstar":0.00075121,"rev_number":32114,"period_min":88.193511306822,"perigee_km":183.05654870708,"apogee_km":187.13888069962,"semimajor_km":6563.2347147033,"source":"CELESTRAK","updated_at":"2026-07-20T09:00:41.046502Z"}}